Location: La Fredeussais
(48.1780°N, 1.3980°W)
Time: 16:24:17
(UTC+00:00)

H-2A R/B - Pass Details

Date: 09 May 2021
Orbit: 573 x 598 km, 98.2° (Epoch: 21 June)

Event Time Altitude Azimuth Distance (km) Brightness Sun altitude
Rises 22:33:46 0° 8° (N) 2,851 7.9 -21.3°
Reaches altitude 10° 22:36:01 10° 3° (N) 1,941 7.0 -21.5°
Maximum altitude 22:40:02 45° 290° (WNW) 809 4.4 -21.7°
Enters shadow 22:41:47 28° 235° (SW) 1,115 4.7 -21.8°
